Location: Codford Saint Peter
(51.1597°N, 2.0531°W)
Time: 23:54:01
(UTC+00:00)

ELECTRON R/B - Pass Details

Date: 05 December 2021
Orbit: 484 x 495 km, 40.0° (Epoch: 23 January)

Event Time Altitude Azimuth Distance (km) Brightness Sun altitude
Exits shadow 06:24:32 - 227° (SW) 2,254 ? -13.4°
Reaches altitude 10° 06:26:36 10° 208° (SSW) 1,664 ? -13.1°
Maximum altitude 06:28:47 15° 173° (S) 1,396 ? -12.8°
Drops below altitude 10° 06:30:58 10° 138° (SE) 1,669 ? -12.5°
Sets 06:33:54 0° 114° (ESE) 2,554 ? -12.0°
